Hourly Data Report for October 10, 2014

All times are specified in Local Standard Time (LST). Add 1 hour to adjust for Daylight Saving Time where and when it is observed.

WINNIPEG A CS
MANITOBA

49°55'00.000" N
97°14'58.000" W
238.70 m
502S001
71849
XWG

Download Data

Hourly Data (October 2014)
Hourly Data Report for October 10, 2014
Temp Definition
°C
Dew Point Temp Definition
°C
Rel Hum Definition
%
Wind Dir Definition
10's deg

Wind Spd Definition
km/h
Visibility Definition
km
Stn Press Definition
kPa
Hmdx Definition


Wind Chill Definition


Weather Definition


TIME
00:00 -4.1 -5.1 93 28 12   99.61   -9 LegendNANA
01:00 -4.7 -5.5 94 28 10   99.62   -9 LegendNANA
02:00 -4.6 -5.2 96 28 11   99.64   -9 LegendNANA
03:00 -4.7 -5.5 94 29 9   99.64   -9 LegendNANA
04:00 -3.6 -4.4 94 27 12   99.66   -8 LegendNANA
05:00 -2.4 -3.3 94 29 8   99.66   -6 LegendNANA
06:00 -3.2 -3.9 95 29 9   99.65   -7 LegendNANA
07:00 -4.5 -5.7 92 26 5   99.66   -7 LegendNANA
08:00 -0.4 -1.3 94 29 5   99.66   -2 LegendNANA
09:00 3.0 1.2 88 28 4   99.65     LegendNANA
10:00 5.7 0.4 69 26 4   99.63     LegendNANA
11:00 6.6 0.4 65 28 4   99.60     LegendNANA
12:00 8.1 -0.3 56 16 6   99.56     LegendNANA
13:00 9.4 -0.4 50 23 8   99.47     LegendNANA
14:00 10.3 -0.1 48 22 9   99.38     LegendNANA
15:00 10.8 -0.1 47 22 8   99.32     LegendNANA
16:00 10.8 -0.4 46 18 14   99.26     LegendNANA
17:00 9.5 0.2 52 16 13   99.19     LegendNANA
18:00 6.2 -0.1 64 15 15   99.14     LegendNANA
19:00 6.2 0.4 67 16 16   99.09     LegendNANA
20:00 5.5 0.3 69 15 13   99.02     LegendNANA
21:00 5.6 0.0 67 15 16   98.97     LegendNANA
22:00 5.0 0.0 70 16 18   98.91     LegendNANA
23:00 5.6 0.0 67 18 21   98.85     LegendNANA

Notes on Data Quality.

Legend

  • E = Estimated
  • M = Missing
  • NA = Not Available
  • ‡ = Partner data that is not subject to review by the National Climate Archives
Date modified: